| time (UTC) | temp F | wind direction | speed MPH | gust MPH | rain 1hr in | rain 24hr in | rain mn in | humidity % | barometer mb |
| 20260906071650 | 83 | 0.0 | 0.0 | 0.00 | 0.00 | 0.00 | 71 | 1011.6 | |
| 20260906065649 | 83 | 0.0 | 0.0 | 0.00 | 0.00 | 0.00 | 70 | 1011.5 | |
| 20260906063647 | 82 | 0.0 | 0.0 | 0.00 | 0.00 | 0.00 | 73 | 1011.3 | |
| 20260906061646 | 82 | 0.0 | 0.0 | 0.00 | 0.00 | 0.00 | 74 | 1011.2 | |
| 20260906055645 | 81 | 0.0 | 0.0 | 0.00 | 0.00 | 0.00 | 75 | 1011.2 | |
| 20260906053644 | 81 | 0.0 | 0.0 | 0.00 | 0.00 | 0.00 | 75 | 1011.0 | |
| 20260906051642 | 81 | 0.0 | 0.0 | 0.00 | 0.00 | 0.00 | 75 | 1010.9 | |
| 20260906045641 | 81 | 0.0 | 0.0 | 0.00 | 0.00 | 0.00 | 77 | 1010.7 | |
| 20260906043640 | 81 | 0.0 | 0.0 | 0.00 | 0.00 | 0.00 | 76 | 1010.8 | |
| 20260906041638 | 81 | 0.0 | 0.0 | 0.00 | 0.00 | 0.00 | 77 | 1010.7 | |
| 20260906035637 | 81 | 0.0 | 0.0 | 0.00 | 0.00 | 0.00 | 79 | 1010.5 | |
| 20260906033636 | 81 | 0.0 | 0.0 | 0.00 | 0.00 | 0.00 | 77 | 1010.4 | |
| 20260906031635 | 81 | 0.0 | 0.0 | 0.00 | 0.00 | 0.00 | 72 | 1010.3 | |
| 20260906025633 | 81 | 0.0 | 0.0 | 0.00 | 0.00 | 0.00 | 76 | 1010.3 | |
| 20260906023632 | 81 | 0.0 | 0.0 | 0.00 | 0.00 | 0.00 | 75 | 1010.5 | |
| 20260906021631 | 81 | 0.0 | 0.0 | 0.00 | 0.00 | 0.00 | 76 | 1010.5 | |
| 20260906015630 | 81 | 0.0 | 0.0 | 0.00 | 0.00 | 0.00 | 74 | 1010.5 | |
| 20260906013628 | 81 | 0.0 | 0.0 | 0.00 | 0.00 | 0.00 | 74 | 1010.5 | |
| 20260906011627 | 81 | 0.0 | 0.0 | 0.00 | 0.00 | 0.00 | 74 | 1010.5 | |
| 20260906005626 | 81 | 0.0 | 0.0 | 0.00 | 0.00 | 0.00 | 77 | 1010.5 | |
| 20260906003625 | 82 | 0.0 | 0.0 | 0.00 | 0.00 | 0.00 | 76 | 1010.4 | |
| 20260906001623 | 82 | 0.0 | 0.0 | 0.00 | 0.00 | 0.00 | 73 | 1010.6 | |
| 20260905235622 | 82 | 0.0 | 0.0 | 0.00 | 0.00 | 0.00 | 72 | 1010.7 | |
| 20260905233621 | 82 | 0.0 | 0.0 | 0.00 | 0.00 | 0.00 | 73 | 1010.8 | |
| 20260905231620 | 82 | 0.0 | 0.0 | 0.00 | 0.00 | 0.00 | 71 | 1011.0 | |
| 20260905225618 | 83 | 0.0 | 0.0 | 0.00 | 0.00 | 0.00 | 69 | 1011.0 | |
| 20260905223617 | 82 | 0.0 | 0.0 | 0.00 | 0.00 | 0.00 | 68 | 1011.1 | |
| 20260905221616 | 83 | 0.0 | 0.0 | 0.00 | 0.00 | 0.00 | 67 | 1011.1 | |
| 20260905215614 | 83 | 0.0 | 0.0 | 0.00 | 0.00 | 0.00 | 65 | 1011.1 | |
| 20260905213613 | 83 | 0.0 | 0.0 | 0.00 | 0.00 | 0.00 | 64 | 1011.2 | |
| 20260905211612 | 83 | 0.0 | 0.0 | 0.00 | 0.00 | 0.00 | 63 | 1011.2 | |
| 20260905205611 | 83 | 0.0 | 0.0 | 0.00 | 0.00 | 0.00 | 59 | 1011.2 | |
| 20260905203609 | 83 | 0.0 | 0.0 | 0.00 | 0.00 | 0.00 | 62 | 1011.2 | |
| 20260905201608 | 84 | 0.0 | 0.0 | 0.00 | 0.00 | 0.00 | 64 | 1011.4 | |
| 20260905195607 | 84 | 0.0 | 0.0 | 0.00 | 0.00 | 0.00 | 63 | 1011.2 | |
| 20260905193606 | 83 | 0.0 | 0.0 | 0.00 | 0.00 | 0.00 | 64 | 1011.1 | |
| 20260905191604 | 84 | 0.0 | 0.0 | 0.00 | 0.00 | 0.00 | 58 | 1011.1 | |
| 20260905185603 | 84 | 0.0 | 0.0 | 0.00 | 0.00 | 0.00 | 57 | 1010.9 | |
| 20260905183602 | 84 | 0.0 | 0.0 | 0.00 | 0.00 | 0.00 | 61 | 1010.7 | |
| 20260905181600 | 84 | 0.0 | 0.0 | 0.00 | 0.00 | 0.00 | 61 | 1010.5 | |
| 20260905175559 | 84 | 0.0 | 0.0 | 0.00 | 0.00 | 0.00 | 64 | 1010.4 | |
| 20260905173558 | 85 | 0.0 | 0.0 | 0.00 | 0.00 | 0.00 | 63 | 1010.4 | |
| 20260905171557 | 85 | 0.0 | 0.0 | 0.00 | 0.00 | 0.00 | 61 | 1010.3 | |
| 20260905165555 | 86 | 0.0 | 0.0 | 0.00 | 0.00 | 0.00 | 56 | 1010.1 | |
| 20260905163554 | 88 | 0.0 | 0.0 | 0.00 | 0.00 | 0.00 | 49 | 1010.1 | |
| 20260905161553 | 89 | 0.0 | 0.0 | 0.00 | 0.00 | 0.00 | 41 | 1010.2 | |
| 20260905155552 | 90 | 0.0 | 0.0 | 0.00 | 0.00 | 0.00 | 40 | 1010.1 | |
| 20260905153550 | 90 | 0.0 | 0.0 | 0.00 | 0.00 | 0.00 | 38 | 1010.1 | |
| 20260905151549 | 91 | 0.0 | 0.0 | 0.00 | 0.00 | 0.00 | 32 | 1010.1 | |
| 20260905145548 | 92 | 0.0 | 0.0 | 0.00 | 0.00 | 0.00 | 29 | 1010.0 | |
| 20260905143547 | 92 | 0.0 | 0.0 | 0.00 | 0.00 | 0.00 | 29 | 1010.0 | |
| 20260905141545 | 92 | 0.0 | 0.0 | 0.00 | 0.00 | 0.00 | 33 | 1010.1 | |
| 20260905135544 | 92 | 0.0 | 0.0 | 0.00 | 0.00 | 0.00 | 34 | 1010.3 | |
| 20260905133543 | 93 | 0.0 | 0.0 | 0.00 | 0.00 | 0.00 | 30 | 1010.3 | |
| 20260905131542 | 93 | 0.0 | 0.0 | 0.00 | 0.00 | 0.00 | 30 | 1010.5 | |
| 20260905125540 | 92 | 0.0 | 0.0 | 0.00 | 0.00 | 0.00 | 34 | 1010.8 | |
| 20260905123539 | 91 | 0.0 | 0.0 | 0.00 | 0.00 | 0.00 | 34 | 1010.8 | |
| 20260905122000 | 91 | 0.0 | 0.0 | 0.00 | 0.00 | 0.00 | 35 | 1011.0 | |
| 20260905115959 | 91 | 0.0 | 0.0 | 0.00 | 0.00 | 0.00 | 35 | 1011.0 | |
| 20260905113958 | 91 | 0.0 | 0.0 | 0.00 | 0.00 | 0.00 | 34 | 1011.0 | |
| 20260905111956 | 90 | 0.0 | 0.0 | 0.00 | 0.00 | 0.00 | 36 | 1011.1 | |
| 20260905105955 | 89 | 0.0 | 0.0 | 0.00 | 0.00 | 0.00 | 39 | 1011.1 | |
| 20260905103954 | 89 | 0.0 | 0.0 | 0.00 | 0.00 | 0.00 | 36 | 1011.0 | |
| 20260905101952 | 89 | 0.0 | 0.0 | 0.00 | 0.00 | 0.00 | 37 | 1011.0 | |
| 20260905095951 | 89 | 0.0 | 0.0 | 0.00 | 0.00 | 0.00 | 38 | 1011.0 | |
| 20260905093950 | 88 | 0.0 | 0.0 | 0.00 | 0.00 | 0.00 | 39 | 1011.1 | |
| 20260905091949 | 87 | 0.0 | 0.0 | 0.00 | 0.00 | 0.00 | 38 | 1011.1 | |
| 20260905085947 | 86 | 0.0 | 0.0 | 0.00 | 0.00 | 0.00 | 42 | 1011.3 | |
| 20260905083946 | 85 | 0.0 | 0.0 | 0.00 | 0.00 | 0.00 | 54 | 1011.2 | |
| 20260905081945 | 85 | 0.0 | 0.0 | 0.00 | 0.00 | 0.00 | 60 | 1011.2 | |
| 20260905075944 | 84 | 0.0 | 0.0 | 0.00 | 0.00 | 0.00 | 63 | 1011.1 | |
| 20260905073943 | 84 | 0.0 | 0.0 | 0.00 | 0.00 | 0.00 | 65 | 1011.1 |